| time (UTC) | temp F | wind direction | speed MPH | gust MPH | rain 1hr in | rain 24hr in | rain mn in | humidity % | barometer mb |
| 20260510014513 | 53 | 195 | 0.0 | 0.0 | 0.00 | 0.59 | 0.54 | 96 | 1006.9 |
| 20260510013012 | 53 | 202 | 0.0 | 0.0 | 0.00 | 0.59 | 0.54 | 96 | 1006.7 |
| 20260510011511 | 54 | 169 | 0.0 | 0.0 | 0.00 | 0.59 | 0.54 | 95 | 1006.4 |
| 20260510010010 | 54 | 129 | 0.0 | 0.0 | 0.00 | 0.67 | 0.54 | 95 | 1006.4 |
| 20260510004509 | 54 | 162 | 0.0 | 0.0 | 0.00 | 0.67 | 0.54 | 95 | 1006.4 |
| 20260510003010 | 54 | 117 | 0.0 | 0.0 | 0.03 | 0.67 | 0.54 | 95 | 1006.2 |
| 20260510001519 | 55 | 108 | 0.0 | 0.0 | 0.23 | 0.67 | 0.54 | 94 | 1006.1 |
| 20260510000007 | 55 | 148 | 0.0 | 0.0 | 0.26 | 0.72 | 0.54 | 93 | 1006.4 |
| 20260509234511 | 54 | 278 | 0.0 | 0.0 | 0.26 | 0.72 | 0.54 | 92 | 1006.1 |
| 20260509233006 | 54 | 353 | 0.0 | 0.0 | 0.23 | 0.69 | 0.51 | 91 | 1006.6 |
| 20260509231506 | 58 | 314 | 0.0 | 0.0 | 0.03 | 0.49 | 0.31 | 81 | 1006.4 |
| 20260509230005 | 67 | 273 | 0.0 | 0.0 | 0.00 | 0.50 | 0.28 | 60 | 1004.1 |
| 20260509224503 | 68 | 164 | 0.0 | 0.0 | 0.00 | 0.50 | 0.28 | 59 | 1003.7 |
| 20260509223003 | 68 | 267 | 0.0 | 0.0 | 0.00 | 0.50 | 0.28 | 58 | 1003.7 |
| 20260509221503 | 69 | 250 | 0.0 | 0.0 | 0.00 | 0.50 | 0.28 | 58 | 1003.3 |
| 20260509220002 | 69 | 221 | 0.0 | 0.0 | 0.00 | 0.50 | 0.28 | 58 | 1003.4 |
| 20260509214502 | 70 | 274 | 0.0 | 0.0 | 0.00 | 0.50 | 0.28 | 55 | 1003.2 |
| 20260509213106 | 70 | 173 | 0.0 | 0.0 | 0.00 | 0.50 | 0.28 | 57 | 1003.1 |
| 20260509211604 | 70 | 189 | 0.0 | 0.0 | 0.00 | 0.50 | 0.28 | 58 | 1003.5 |
| 20260509210100 | 70 | 219 | 0.0 | 0.0 | 0.00 | 0.50 | 0.28 | 58 | 1003.8 |
| 20260509204559 | 69 | 124 | 0.0 | 0.0 | 0.00 | 0.50 | 0.28 | 59 | 1003.9 |
| 20260509203049 | 69 | 136 | 0.0 | 0.0 | 0.00 | 0.50 | 0.28 | 58 | 1004.2 |
| 20260509201547 | 69 | 217 | 0.0 | 0.0 | 0.00 | 0.50 | 0.28 | 59 | 1004.2 |
| 20260509200044 | 68 | 287 | 0.0 | 0.0 | 0.00 | 0.50 | 0.28 | 60 | 1004.5 |
| 20260509194543 | 68 | 199 | 0.0 | 0.0 | 0.00 | 0.50 | 0.28 | 61 | 1004.9 |
| 20260509193043 | 67 | 235 | 0.0 | 0.0 | 0.00 | 0.50 | 0.28 | 63 | 1005.1 |
| 20260509191537 | 67 | 278 | 0.0 | 0.0 | 0.00 | 0.50 | 0.28 | 63 | 1005.2 |
| 20260509190038 | 67 | 248 | 0.0 | 0.0 | 0.00 | 0.50 | 0.28 | 66 | 1005.4 |
| 20260509184537 | 67 | 208 | 0.0 | 0.0 | 0.00 | 0.50 | 0.28 | 63 | 1005.6 |
| 20260509183032 | 67 | 241 | 0.0 | 0.0 | 0.00 | 0.50 | 0.28 | 63 | 1005.5 |
| 20260509181529 | 67 | 193 | 0.0 | 0.0 | 0.00 | 0.50 | 0.28 | 65 | 1005.6 |
| 20260509180027 | 66 | 267 | 0.0 | 0.0 | 0.00 | 0.50 | 0.28 | 66 | 1005.6 |
| 20260509174526 | 65 | 278 | 0.0 | 0.0 | 0.00 | 0.50 | 0.28 | 68 | 1005.7 |
| 20260509173023 | 66 | 276 | 0.0 | 0.0 | 0.00 | 0.50 | 0.28 | 68 | 1005.8 |
| 20260509171519 | 64 | 276 | 0.0 | 0.0 | 0.00 | 0.50 | 0.28 | 74 | 1005.7 |
| 20260509170018 | 63 | 238 | 0.0 | 0.0 | 0.00 | 0.50 | 0.28 | 73 | 1005.9 |
| 20260509164516 | 64 | 278 | 0.0 | 0.0 | 0.00 | 0.50 | 0.28 | 74 | 1006.2 |
| 20260509163019 | 64 | 267 | 0.0 | 0.0 | 0.00 | 0.50 | 0.28 | 75 | 1006.3 |
| 20260509161511 | 61 | 231 | 0.0 | 0.0 | 0.00 | 0.50 | 0.28 | 78 | 1006.7 |
| 20260509160008 | 61 | 275 | 0.0 | 0.0 | 0.00 | 0.50 | 0.28 | 80 | 1006.6 |
| 20260509154504 | 60 | 181 | 0.0 | 0.0 | 0.00 | 0.50 | 0.28 | 83 | 1006.6 |
| 20260509153003 | 59 | 198 | 0.0 | 0.0 | 0.00 | 0.50 | 0.28 | 85 | 1006.6 |
| 20260509151558 | 58 | 20 | 0.0 | 0.0 | 0.00 | 0.50 | 0.28 | 89 | 1006.7 |
| 20260509150055 | 57 | 212 | 0.0 | 0.0 | 0.00 | 0.50 | 0.28 | 91 | 1006.9 |
| 20260509144609 | 56 | 206 | 0.0 | 0.0 | 0.00 | 0.50 | 0.28 | 92 | 1006.9 |
| 20260509143052 | 55 | 219 | 0.0 | 0.0 | 0.00 | 0.50 | 0.28 | 94 | 1006.9 |
| 20260509141547 | 55 | 85 | 0.0 | 0.0 | 0.00 | 0.50 | 0.28 | 94 | 1006.9 |
| 20260509140059 | 54 | 128 | 0.0 | 0.0 | 0.00 | 0.50 | 0.28 | 95 | 1006.9 |
| 20260509134546 | 53 | 278 | 0.0 | 0.0 | 0.00 | 0.50 | 0.28 | 96 | 1006.9 |
| 20260509133041 | 53 | 209 | 0.0 | 0.0 | 0.00 | 0.50 | 0.28 | 96 | 1006.9 |
| 20260509131552 | 53 | 203 | 0.0 | 0.0 | 0.00 | 0.50 | 0.28 | 96 | 1007.1 |
| 20260509130037 | 53 | 207 | 0.0 | 0.0 | 0.00 | 0.50 | 0.28 | 96 | 1007.1 |
| 20260509124539 | 52 | 228 | 0.0 | 0.0 | 0.00 | 0.50 | 0.28 | 97 | 1007.2 |
| 20260509123035 | 52 | 169 | 0.0 | 0.0 | 0.00 | 0.50 | 0.28 | 97 | 1007.4 |
| 20260509121547 | 52 | 141 | 0.0 | 0.0 | 0.00 | 0.50 | 0.28 | 97 | 1007.3 |
| 20260509120035 | 51 | 166 | 0.0 | 0.0 | 0.00 | 0.50 | 0.28 | 97 | 1007.5 |
| 20260509114532 | 51 | 165 | 0.0 | 0.0 | 0.00 | 0.50 | 0.28 | 97 | 1007.5 |
| 20260509113027 | 0 | 0.0 | 0.0 | 0.00 | 0.50 | 0.28 | 1007.5 | ||
| 20260509111524 | 0 | 0.0 | 0.0 | 0.00 | 0.50 | 0.28 | 1007.3 | ||
| 20260509110018 | 0 | 0.0 | 0.0 | 0.00 | 0.50 | 0.28 | 1007.3 | ||
| 20260509104513 | 0 | 0.0 | 0.0 | 0.00 | 0.50 | 0.28 | 1007.2 | ||
| 20260509103008 | 0 | 0.0 | 0.0 | 0.00 | 0.50 | 0.28 | 1007.3 | ||
| 20260509101503 | 0 | 0.0 | 0.0 | 0.00 | 0.50 | 0.28 | 1007.5 | ||
| 20260509100103 | 0 | 0.0 | 0.0 | 0.00 | 0.50 | 0.28 | 1007.5 | ||
| 20260509094557 | 0 | 0.0 | 0.0 | 0.01 | 0.50 | 0.28 | 1007.6 | ||
| 20260509093052 | 0 | 127 | 0.0 | 0.0 | 0.01 | 0.50 | 0.28 | 1007.7 | |
| 20260509091549 | 50 | 154 | 0.0 | 0.0 | 0.01 | 0.50 | 0.28 | 97 | 1007.9 |
| 20260509084548 | 50 | 209 | 0.0 | 0.0 | 0.01 | 0.49 | 0.27 | 97 | 1008.0 |
| 20260509083056 | 50 | 156 | 0.0 | 0.0 | 0.03 | 0.49 | 0.27 | 97 | 1008.0 |
| 20260509081545 | 50 | 224 | 0.0 | 0.0 | 0.04 | 0.49 | 0.27 | 97 | 1008.1 |
| 20260509080048 | 50 | 171 | 0.0 | 0.0 | 0.05 | 0.49 | 0.27 | 97 | 1008.2 |
| 20260509074544 | 50 | 166 | 0.0 | 0.0 | 0.09 | 0.48 | 0.26 | 97 | 1008.3 |
| 20260509073046 | 50 | 194 | 0.0 | 0.0 | 0.11 | 0.46 | 0.24 | 97 | 1008.4 |
| 20260509071540 | 50 | 215 | 0.0 | 0.0 | 0.12 | 0.45 | 0.23 | 97 | 1008.4 |
| 20260509070040 | 50 | 199 | 0.0 | 0.0 | 0.10 | 0.43 | 0.21 | 97 | 1008.4 |
| 20260509064544 | 50 | 212 | 0.0 | 0.0 | 0.06 | 0.38 | 0.16 | 97 | 1008.5 |
| 20260509063036 | 50 | 178 | 0.0 | 0.0 | 0.03 | 0.35 | 0.13 | 97 | 1008.5 |
| 20260509061540 | 50 | 260 | 0.0 | 0.0 | 0.03 | 0.33 | 0.11 | 97 | 1008.7 |
| 20260509060032 | 50 | 171 | 0.0 | 0.0 | 0.06 | 0.33 | 0.11 | 97 | 1008.8 |
| 20260509054531 | 50 | 255 | 0.0 | 0.0 | 0.06 | 0.32 | 0.10 | 97 | 1009.0 |
| 20260509053044 | 50 | 130 | 0.0 | 0.0 | 0.07 | 0.32 | 0.10 | 96 | 1009.2 |
| 20260509051527 | 50 | 161 | 0.0 | 0.0 | 0.06 | 0.30 | 0.08 | 96 | 1009.4 |
| 20260509050029 | 50 | 276 | 0.0 | 0.0 | 0.05 | 0.27 | 0.05 | 96 | 1009.6 |
| 20260509044525 | 50 | 136 | 0.0 | 0.0 | 0.04 | 0.26 | 0.04 | 96 | 1009.6 |
| 20260509043023 | 50 | 139 | 0.0 | 0.0 | 0.04 | 0.25 | 0.03 | 96 | 1009.8 |
| 20260509041534 | 50 | 216 | 0.0 | 0.0 | 0.03 | 0.24 | 0.02 | 96 | 1009.9 |
| 20260509040019 | 50 | 222 | 0.0 | 0.0 | 0.01 | 0.22 | 0.00 | 96 | 1010.2 |
| 20260509034519 | 50 | 159 | 0.0 | 0.0 | 0.01 | 0.22 | 0.22 | 96 | 1010.4 |
| 20260509033019 | 50 | 224 | 0.0 | 0.0 | 0.00 | 0.21 | 0.21 | 96 | 1010.3 |
| 20260509031517 | 50 | 197 | 0.0 | 0.0 | 0.00 | 0.21 | 0.21 | 96 | 1010.2 |
| 20260509030017 | 50 | 168 | 0.0 | 0.0 | 0.00 | 0.21 | 0.21 | 96 | 1010.4 |
| 20260509024516 | 50 | 169 | 0.0 | 0.0 | 0.00 | 0.21 | 0.21 | 96 | 1010.7 |
| 20260509023017 | 50 | 234 | 0.0 | 0.0 | 0.00 | 0.21 | 0.21 | 96 | 1010.8 |
| 20260509021515 | 50 | 174 | 0.0 | 0.0 | 0.02 | 0.21 | 0.21 | 96 | 1010.8 |
| 20260509020014 | 50 | 163 | 0.0 | 0.0 | 0.04 | 0.21 | 0.21 | 96 | 1010.8 |